COMPLETED DISPATCHED CALLS FOR SERVICE

Welcome to the Jacksonville Sheriff’s Office Completed Dispatched Calls for Service webpage. This page displays calls for service made to the Jacksonville Sheriff's Office that have recently been completed. The data on this page is refreshed automatically.

This information is not intended to be used as official crime data. This program does not provide information about all crimes, and excludes specific incidents such as sexual assaults and child abuse.

Disclaimer: The Jacksonville Sheriff's Office makes every effort to produce and publish current and accurate information. No warranties, expressed or implied, are provided for the data herein, its use, or its interpretation. The services provided are for informational purposes only and should not be relied on for any type of legal action.

Last refreshed 4/21 16:39:55

Incident # Dispatched Block Address Signal Call Description  
180421270009 4-21 16:27 11400 HALETHORPE DR 1066 CANCEL
180421269991 4-21 16:11 POWERS AVE AND W UNIVERSITY BLVD 1050 TRAFFIC STOP
180421269987 4-21 16:09 3700 BLANDING BLVD 50 FOUND/ABANDONED PROPERTY
180421269985 4-21 16:06 W 41ST ST AND W 44TH ST 1050 TRAFFIC STOP
180421269969 4-21 16:05 6400 S FAYAL DR 1066 CANCEL
180421269980 4-21 16:03 GOL/BRENT 16 ROAD OBSTRUCTION
180421269972 4-21 16:01 6700 COMMONWEALTH AVE 63 DISPUTE
180421269954 4-21 16:00 6700 WILSON BLVD 1 IMPAIRED/DRUNK DRIVER
180421269977 4-21 16:00 BLAIR/NORMAN 96 ASSIST MOTORIST
180421269975 4-21 15:59 GOLFAIR BLVD AND SPRINGFIELD BLVD 1050 TRAFFIC STOP
180421269854 4-21 15:58 300 MONUMENT RD 22 DOMESTIC
180421269970 4-21 15:56 5600 BEACH BLVD 95ID IDENTITY THEFT
180421269966 4-21 15:55 1200 DUNN AVE 1050 TRAFFIC STOP
180421269964 4-21 15:54 10500 SAN JOSE BLVD 1050 TRAFFIC STOP
180421269963 4-21 15:54 W BAY ST AND N LEE ST 1050 TRAFFIC STOP
180421269955 4-21 15:53 10200 RIVER MARSH DR 19 ANIMAL INVESTIGATION
180421269929 4-21 15:53 2200 PARKIN RD 86T LOST PROPERTY (TELESERVE)
180421269960 4-21 15:52 295/GATE 96 ASSIST MOTORIST
180421269928 4-21 15:51 NETTIE RD AND COMMUNITY RD 4 AUTO CRASH
180421269950 4-21 15:50 1200 LAKE SHORE BLVD 63 DISPUTE
180421269953 4-21 15:49 PLYMOUTH/LAKESHORE 1050 TRAFFIC STOP
180421269927 4-21 15:46 3600 S LANE AVE 63 DISPUTE
180421269913 4-21 15:42 2400 LEON RD 68T CON GAME/FLIM FLAM TELESERVE
180421269904 4-21 15:36 9900 BAYMEADOWS RD 63 DISPUTE
180421269911 4-21 15:36 1200 LABELLE ST 37 UNVERIFIED 911 CALL
180421269919 4-21 15:35 SUNBEAM RD AND SAN JOSE BLVD 4 AUTO CRASH
180421269833 4-21 15:34 5100 PLAYPEN DR 3 HIT AND RUN CRASH
180421269922 4-21 15:33 J TURNER BUTLER BLVD AND GATE PKWY 4 AUTO CRASH
180421269916 4-21 15:30 S I295 EXPWY AND J TURNER BUTLER BLVD 4 53 TRAFFIC CRASH PERSON INJURED
180421269900 4-21 15:30 9100 UPSTREAM CT 63 DISPUTE
180421269909 4-21 15:30 MCQUADE ST AND BAKER AVE 73 DRUG INVESTIGATION
180421269902 4-21 15:25 7200 E KEN KNIGHT DR 22 DOMESTIC
180421269889 4-21 15:23 10900 SAN JOSE BLVD 87 DAMAGED PROPERTY
180421269851 4-21 15:23 11300 SAMUEL DR 98 THROWING MISSILES
180421269887 4-21 15:21 4300 CONFEDERATE POINT RD 8 MISSING PERSON
180421269894 4-21 15:21 N CENTER ST AND W U S 90 HWY 4 AUTO CRASH
180421269882 4-21 15:19 FT CAROLINE RD AND TOWNSEND BLVD 16 ROAD OBSTRUCTION
180421269890 4-21 15:19 N US 301 HWY AND MARTIN LUTHER KING JR DR 4 AUTO CRASH
180421269888 4-21 15:17 ROGERO RD AND MERRILL RD 1050 TRAFFIC STOP
180421269884 4-21 15:16 6800 FIRESTONE RD 13 SUSPICIOUS PERSON
180421269829 4-21 15:15 7000 PRELLIE ST 28 DELIVER MESSAGE
180421269881 4-21 15:14 10200 FT CAROLINE RD 4 AUTO CRASH
180421269866 4-21 15:14 100 CRYSTAL BRANCH CT 54 ILLEGALLY PARKED CAR
180421269872 4-21 15:14 SQUARE LAKE BLVD AND SOUTHSIDE BLVD 13 SUSPICIOUS PERSON
180421269828 4-21 15:13 4100 N OLD MIDDLEBURG RD 63 DISPUTE
180421269798 4-21 15:12 5600 EDENFIELD RD 22 DOMESTIC
180421269880 4-21 15:10 ROWE AVE AND LEM TURNER RD 1050 TRAFFIC STOP
180421269875 4-21 15:10 2700 PARK ST 63 DISPUTE
180421269877 4-21 15:07 1200 GROTHE ST 63 DISPUTE
180421269859 4-21 15:03 500 W 26TH ST 9T THEFT (TELESERVE)
180421269855 4-21 15:03 LEM TURNER RD AND DUNN AVE 4 AUTO CRASH
180421269864 4-21 15:00 ACME/GALVESTON 1050 TRAFFIC STOP
180421269860 4-21 14:58 2150CLEVELND 1050 TRAFFIC STOP
180421269843 4-21 14:58 12600 BONEY RD 11 ABANDONED VEHICLE
180421269857 4-21 14:57 9400 SPOTTSWOOD RD 26C CARDIAC AED
180421269819 4-21 14:57 5900 RAMONA BLVD 1066 CANCEL
180421269818 4-21 14:57 4800 ALPHA AVE 64 NOISE COMPLAINT
180421269853 4-21 14:56 6200 SYRINGA LN 76 ASSIST OTHER AGENCY
180421269831 4-21 14:54 10700 ATLANTIC BLVD 63 DISPUTE
180421269848 4-21 14:54 7900 COCOA AVE 13 SUSPICIOUS PERSON
180421269841 4-21 14:53 5800 SOUTHPOINT PKWY 54 ILLEGALLY PARKED CAR
180421269814 4-21 14:51 4200 CONFEDERATE POINT RD 22 DOMESTIC
180421269788 4-21 14:50 4000 HODGES BLVD 63 DISPUTE
180421269751 4-21 14:49 4100 PHILIPS HWY 63 DISPUTE
180421269815 4-21 14:48 5900 FT CAROLINE RD 13 SUSPICIOUS PERSON
180421269836 4-21 14:48 4800 SEASCAPE WAY 1066 CANCEL
180421269809 4-21 14:44 HENDRICKS AVE AND EMERSON ST 16 ROAD OBSTRUCTION
180421269825 4-21 14:43 3300 W 20TH ST 27 MENTALLY ILL PERSON
180421269800 4-21 14:37 1500 W 28TH ST 9T THEFT (TELESERVE)
180421269811 4-21 14:35 MONUMENT RD AND S I295 EXPWY 4 AUTO CRASH
180421269813 4-21 14:35 N ARLINGTON RD AND EATON AVE 1050 TRAFFIC STOP
180421269808 4-21 14:34 S OLD MIDDLEBURG RD AND MAYNARD PL 96 ASSIST MOTORIST
180421269810 4-21 14:34 1600 TYLER ST 13 SUSPICIOUS PERSON
180421269803 4-21 14:33 100 W MATHEWS BRG 16 ROAD OBSTRUCTION
180421269806 4-21 14:32 9400 ATLANTIC BLVD 1050 TRAFFIC STOP
180421269787 4-21 14:28 3800 S UNIVERSITY BLVD 63 DISPUTE
180421269725 4-21 14:25 SAN JOSE BLVD AND ADDIE LN 63 DISPUTE
180421269794 4-21 14:24 12400 TURNBERRY DR 1066 CANCEL
180421269768 4-21 14:23 5300 ARLINGTON EXPWY 21R BURGLARY RESIDENCE
180421269760 4-21 14:22 100 S BUCKMAN BRG 96 ASSIST MOTORIST
180421269777 4-21 14:22 2700 OLD RIVER RD 76 ASSIST OTHER AGENCY
180421269754 4-21 14:21 7200 WEDGEWOOD DR 1066 CANCEL
180421269792 4-21 14:20 3700 BELFORT RD 8 MISSING PERSON
180421269790 4-21 14:19 5900 S LANE CIR 26C CARDIAC AED
180421269785 4-21 14:18 7500 W TAURUS CIR 22 DOMESTIC
180421269789 4-21 14:16 N MAIN ST AND TALLULAH AVE 1050 TRAFFIC STOP
180421269783 4-21 14:13 4400 MONCRIEF RD 1050 TRAFFIC STOP
180421269780 4-21 14:12 TICONDEROGA ST/AMERICA ST 76 ASSIST OTHER AGENCY
180421269758 4-21 14:11 DUNN AVE AND MCALLISTER BLVD 3 HIT AND RUN CRASH
180421269745 4-21 14:11 11200 HARTS RD 2288 DOMESTIC DISPUTE WITH/ASSAULT
180421269778 4-21 14:10 I10/CHAF 16 ROAD OBSTRUCTION
180421269776 4-21 14:10 3900 OLDFIELD CROSSING DR 63 DISPUTE
180421269773 4-21 14:09 10100 PONTIAC DR 61 FIGHT
180421269771 4-21 14:08 6300 ARLINGTON RD 63 DISPUTE
180421269719 4-21 14:08 900 BROWARD RD 0 88 ARMED ASSAULT
180421269752 4-21 14:08 10500 OLD ST AUGUSTINE RD 63 DISPUTE
180421269775 4-21 14:08 2300 PHILIPS HWY 60 SUICIDE OR ATTEMPT
180421269711 4-21 14:07 600 AIRPORT CENTER DR 13 SUSPICIOUS PERSON
180421269762 4-21 14:06 1500 S LANE AVE 63 DISPUTE
180421269770 4-21 14:06 200 MONUMENT RD 17 PERSON DOWN OR SICK
180421269769 4-21 14:06 RACETRACK RD AND PHILIPS HWY 1050 TRAFFIC STOP
180421269753 4-21 14:05 1400 N JEFFERSON ST 63 DISPUTE
180421269731 4-21 14:03 6400 FT CAROLINE RD 14 VANDALISM
180421269764 4-21 14:02 1800 KINGS RD 10 VEHICLE THEFT
180421269727 4-21 14:00 14000 BEACH BLVD 63 DISPUTE
180421269737 4-21 14:00 11700 PALM LAKE DR 76 ASSIST OTHER AGENCY
180421269721 4-21 14:00 5200 NORWOOD AVE 4 AUTO CRASH
180421269759 4-21 13:58 14500 PHILIPS HWY 16 ROAD OBSTRUCTION
180421269757 4-21 13:58 7100 SUN RD 56 JUVENILE COMPLAINT
180421269756 4-21 13:57 4600 RIVER CITY DR 87 DAMAGED PROPERTY
180421269743 4-21 13:57 BLANDING BLVD AND LAKE GRAY BLVD 4 AUTO CRASH
180421269677 4-21 13:53 800 DUNN AVE 63 DISPUTE
180421269726 4-21 13:51 7900 W RAMONA BLVD 14 VANDALISM
180421269708 4-21 13:48 9500 ARLINGTON EXPWY 63 DISPUTE
180421269738 4-21 13:47 2000 W 14TH ST 54 ILLEGALLY PARKED CAR
180421269739 4-21 13:47 800 S LANE AVE 95 FRAUD/FORGED (CHECK, ID, RX)
180421269736 4-21 13:46 W 16TH ST AND N MYRTLE AVE 13 SUSPICIOUS PERSON
180421269680 4-21 13:46 4400 W COBBLEFIELD CIR 9T THEFT (TELESERVE)
180421269734 4-21 13:45 11300 BEACH BLVD 9 THEFT
180421269699 4-21 13:44 2100 BEDFORD RD 10R VEHICLE THEFT RECOVERY
180421269668 4-21 13:41 5300 BEACH BLVD 4 AUTO CRASH
180421269568 4-21 13:41 6300 CARRANZA DR 8 MISSING PERSON
180421269723 4-21 13:40 8400 CAPRICORN ST 1066 CANCEL
180421269662 4-21 13:40 2000 PHOENIX AVE 63 DISPUTE
180421269714 4-21 13:40 1500 EL PRADO RD 14R VANDALISM RESIDENCE
180421269720 4-21 13:36 9500 MERRILL RD 13 SUSPICIOUS PERSON
180421269718 4-21 13:34 103RD/I295 1050 TRAFFIC STOP
180421269686 4-21 13:33 3700 W EVE DR 22 DOMESTIC
180421269715 4-21 13:32 10900 HECKSCHER DR 12 RECKLESS DRIVER
180421269713 4-21 13:31 4600 HOOD RD 16 ROAD OBSTRUCTION
180421269706 4-21 13:28 400 WADE DR 64 NOISE COMPLAINT
180421269694 4-21 13:28 2900 THOMAS ST 50 FOUND/ABANDONED PROPERTY
180421269698 4-21 13:27 EAGLES HAMMOCK BLVD AND YELLOW BLUFF RD 64 NOISE COMPLAINT
180421269674 4-21 13:25 14600 DUVAL RD 63 DISPUTE
180421269681 4-21 13:24 7000 RAMONA BLVD 21C BURGLARY CONVEYANCE
180421269701 4-21 13:21 8000 ATLANTIC BLVD 13 SUSPICIOUS PERSON
180421269700 4-21 13:18 2600 SRA1A HWY 76 ASSIST OTHER AGENCY
180421269697 4-21 13:18 6800 FIRESTONE RD 4 29 CRASH - WIRE DOWN
180421269693 4-21 13:17 6000 COLUMBINE DR 21R BURGLARY RESIDENCE
180421269696 4-21 13:16 ROOSE/HOL 16 ROAD OBSTRUCTION
180421269690 4-21 13:16 14000 BEACH BLVD 63 DISPUTE
180421269657 4-21 13:14 5200 ANGEL LAKE DR 22 DOMESTIC
180421269591 4-21 13:11 1600 MARGARET ST 63 DISPUTE
180421269687 4-21 13:11 BISCAYNE BLVD AND DUVAL RD 4 53 TRAFFIC CRASH PERSON INJURED
180421269689 4-21 13:10 2200 W EDGEWOOD AVE 54 ILLEGALLY PARKED CAR
180421269645 4-21 13:07 4500 WHISPERING INLET DR 63 DISPUTE
180421269683 4-21 13:06 4000MYRTLE 1050 TRAFFIC STOP
180421269678 4-21 13:05 N ARLINGTON RD AND ARLINGTON EXPWY 4 AUTO CRASH
180421269665 4-21 13:04 5800 W UNIVERSITY BLVD 63 DISPUTE
180421269679 4-21 13:04 10500 DEERWOOD PARK BLVD 38 TRAFFIC ASSIGNMENT
180421269590 4-21 13:03 6300 N MAIN ST 21B BURGLARY BUSINESS
180421269609 4-21 13:02 7000 ROUNDLEAF DR 63 DISPUTE
180421269669 4-21 13:01 ARLINGTON XY SERVICE RD AND MILL CREEK RD 4 AUTO CRASH
180421269670 4-21 13:01 TOWN CENTER PKWY AND S I295 EXPWY 4 AUTO CRASH
180421269654 4-21 13:00 12500 W ANGEL LAKE DR 63 DISPUTE
180421269671 4-21 12:59 N I295 EXPWY AND MONUMENT RD 4 AUTO CRASH
180421269672 4-21 12:59 5600 BEACH BLVD 95ID IDENTITY THEFT
180421269652 4-21 12:57 SUNBEAM RD AND HOOD RD 4 AUTO CRASH
180421269666 4-21 12:56 S I295 EXPWY AND TOWN CENTER PKWY 4 AUTO CRASH
180421269640 4-21 12:56 PHILIPS HWY AND BAYMEADOWS WAY 4 AUTO CRASH
180421269622 4-21 12:55 EMERSON ST AND SPRING PARK RD 4 AUTO CRASH
180421269659 4-21 12:53 3600 ST JOHNS AVE 4 53 TRAFFIC CRASH PERSON INJURED
180421269473 4-21 12:50 7500 S OLD KINGS RD 63 DISPUTE
180421269649 4-21 12:50 8200 YOLANDA CT 33 DISCHARGING OF FIREARM
180421269606 4-21 12:49 3600 ST JOHNS AVE 9J THEFT JUST OCCURRED
180421269578 4-21 12:48 900 SOUTH SHORES RD 3T HIT AND RUN CRASH - TELESERVE
180421269651 4-21 12:46 LONDONTOWNE LN AND WATERGATE LN 63 DISPUTE
180421269650 4-21 12:45 1700 LEON RD 57 PERSON CALLING FOR HELP
180421269641 4-21 12:42 14300 BEACH BLVD 4 AUTO CRASH
180421269646 4-21 12:40 900 BROWARD RD 0 22 DOMESTIC DISTURBANCE W/WEAPON
180421269643 4-21 12:38 900 ACORN ST 19 ANIMAL INVESTIGATION
180421269642 4-21 12:37 1700 LAKE SHORE BLVD 76 ASSIST OTHER AGENCY
180421269600 4-21 12:36 1200 GROTHE ST 63 DISPUTE
180421269621 4-21 12:35 1200 W 32ND ST 13 SUSPICIOUS PERSON
180421269634 4-21 12:34 UNIVERSITY BLVD AND ARLINGTON EXPWY 4 AUTO CRASH
180421269632 4-21 12:30 N I95 EXPWY AND J TURNER BUTLER BLVD 4 53 TRAFFIC CRASH PERSON INJURED
180421269627 4-21 12:29 N DAVIS ST AND W UNION ST 4 AUTO CRASH
180421269630 4-21 12:29 ARGYLE FOREST BLVD AND W CROSS TIMBERS DR 13 SUSPICIOUS PERSON
180421269629 4-21 12:28 5100 BENNING RD 76 ASSIST OTHER AGENCY
180421269614 4-21 12:28 400 WADE DR 64 NOISE COMPLAINT
180421269631 4-21 12:28 N I95 EXPWY AND BOWDEN RD 4 53 TRAFFIC CRASH PERSON INJURED
180421269617 4-21 12:27 12300 WOODLAND DR 88J ASSAULT JUST OCCURRED
180421269607 4-21 12:27 HAMILTON ST AND HEADLEY ST 13 SUSPICIOUS PERSON
180421269628 4-21 12:27 103RD ST AND N OLD MIDDLEBURG RD 3 HIT AND RUN CRASH
180421269584 4-21 12:26 1700 FOURAKER RD 9T THEFT (TELESERVE)
180421269588 4-21 12:25 3000 MONCRIEF RD 63 DISPUTE
180421269624 4-21 12:22 I95 NB/BAYMEADOWS 1050 TRAFFIC STOP
180421269566 4-21 12:22 8600 BAYMEADOWS RD 9 THEFT
180421269619 4-21 12:20 4700 HODGES BLVD 50 FOUND/ABANDONED PROPERTY
180421269620 4-21 12:19 100 SHIRCLIFF WAY 13 SUSPICIOUS PERSON
180421269611 4-21 12:16 100 W MATHEWS BRG 13 SUSPICIOUS PERSON
180421269616 4-21 12:16 9700 DEER LAKE CT 4 AUTO CRASH
180421269581 4-21 12:15 9400 SAN JOSE BLVD 22 DOMESTIC
180421269615 4-21 12:15 100 ORTEGA BRG 16 ROAD OBSTRUCTION
180421269612 4-21 12:14 2800 EVERCHARM PL 1066 CANCEL
180421269542 4-21 12:14 4500 W MONCRIEF RD 14R VANDALISM RESIDENCE
180421269582 4-21 12:14 5300 CATOMA ST 14B VANDALISM BUSINESS
180421269608 4-21 12:13 E I10 EXPWY AND S EDGEWOOD AVE 4 AUTO CRASH
180421269593 4-21 12:11 S I95 EXPWY AND SAN MARCO BLVD 13 SUSPICIOUS PERSON
180421269610 4-21 12:11 N ARLINGTON RD AND ARLINGTON EXPWY 4 AUTO CRASH
180421269603 4-21 12:07 4300 SUNBEAM RD 63 DISPUTE
180421269592 4-21 12:06 2200 S UNIVERSITY BLVD 0 13 ARMED SUSPICIOUS PERSON
180421269599 4-21 12:04 700 N MAIN ST 63 DISPUTE
180421269596 4-21 12:03 1200 KINGS RD 9 THEFT
180421269597 4-21 12:03 CHAF/BV 96 ASSIST MOTORIST
180421269499 4-21 12:02 5900 FLICKER AVE 63 DISPUTE
180421269594 4-21 12:02 J TURNER BUTLER BLVD AND SOUTHSIDE BLVD 3 HIT AND RUN CRASH
180421269585 4-21 11:58 400 STARRATT RD 10R VEHICLE THEFT RECOVERY
180421269579 4-21 11:56 S MCDUFF AVE AND ROOSEVELT BLVD 4 AUTO CRASH
180421269567 4-21 11:52 7500 BEACH BLVD 54 ILLEGALLY PARKED CAR
180421269580 4-21 11:52 10300 SOUTHSIDE BLVD 63 DISPUTE
180421269532 4-21 11:50 8400 W GATE PKWY 9 THEFT
180421269577 4-21 11:50 5600 BEACH BLVD 95ID IDENTITY THEFT
180421269575 4-21 11:49 THOMAS ST AND S MCDUFF AVE 50 FOUND/ABANDONED PROPERTY
180421269571 4-21 11:46 2900 W 9TH ST 63 DISPUTE
180421269570 4-21 11:46 7600 MERRILL RD 76 ASSIST OTHER AGENCY
180421269494 4-21 11:45 800 PRUDENTIAL DR 49 REPORT TO HOSPITAL
180421269569 4-21 11:44 1400 W 26TH ST 76 ASSIST OTHER AGENCY
180421269528 4-21 11:39 7600 ARLINGTON EXPWY 1066 CANCEL
180421269546 4-21 11:38 BEACH BLVD AND HODGES BLVD 4 AUTO CRASH
180421269555 4-21 11:38 6600 MORSE GLEN LN 95T FRAUD/FORGED (CHECK, ID, RX) (TELESERVE)
180421269561 4-21 11:37 6500 SAN JUAN AVE 13 SUSPICIOUS PERSON
180421269560 4-21 11:36 11200 OLD ST AUGUSTINE RD 4 AUTO CRASH
180421269563 4-21 11:35 13000 GRAN BAY PKWY 22 DOMESTIC
180421269558 4-21 11:35 10900 LEM TURNER RD 22 DOMESTIC
180421269533 4-21 11:34 STARRATT RD AND PULASKI RD 14CJ VANDALISM CONVEYANCE JUST OCCURRED
180421269559 4-21 11:33 9500 ARLINGTON EXPWY 1050 TRAFFIC STOP
180421269550 4-21 11:32 3200 RANDALL ST 13 SUSPICIOUS PERSON
180421269556 4-21 11:32 6500 S GENTLE OAKS DR 21R BURGLARY RESIDENCE
180421269552 4-21 11:31 7200 MERRILL RD 63 DISPUTE
180421269547 4-21 11:31 N I295 EXPWY AND NORMANDY BLVD 76 ASSIST OTHER AGENCY
180421269551 4-21 11:30 W BEAVER ST AND JONES RD 4 AUTO CRASH
180421269545 4-21 11:29 5200 NORMANDY BLVD 9J THEFT JUST OCCURRED
180421269548 4-21 11:29 MAYPORT RD AND SRA1A HWY 13 SUSPICIOUS PERSON
180421269535 4-21 11:28 8500 HOMEPLACE DR 20 PROWLER
180421269544 4-21 11:26 N I295 EXPWY AND NORMANDY BLVD 4 AUTO CRASH
180421269540 4-21 11:26 3500 W 12TH ST 21R BURGLARY RESIDENCE
180421269523 4-21 11:26 14800 WADE RD 95 FRAUD/FORGED (CHECK, ID, RX)
180421269543 4-21 11:25 SOUTHSIDE BLVD AND DEERWOOD PARK BLVD 1050 TRAFFIC STOP
180421269538 4-21 11:24 13200 BEACH BLVD 27 MENTALLY ILL PERSON
180421269521 4-21 11:23 1000 AIRPORT RD 13 SUSPICIOUS PERSON
180421269485 4-21 11:19 1100 E 18TH ST 63 DISPUTE
180421269526 4-21 11:18 SOUTHPOINT PKWY AND BOWDEN RD 16 ROAD OBSTRUCTION
180421269530 4-21 11:17 10100 ATLANTIC BLVD 9 THEFT
180421269460 4-21 11:16 5200 ROYCE AVE 63 DISPUTE
180421269504 4-21 11:11 2100 W 39TH ST 63 DISPUTE
180421269497 4-21 11:10 8600 E BAYMEADOWS RD 21C BURGLARY CONVEYANCE
180421269489 4-21 11:10 7900 SMYRNA ST 63 DISPUTE
180421269524 4-21 11:09 OLDFIELD CROSSING DR AND OLD ST AUGUSTINE RD 4 AUTO CRASH
180421269522 4-21 11:09 800 DUNN AVE 95P FRAUD/FORGED (CHECK, ID, RX) IN PROGRESS
180421269508 4-21 11:08 1900 N DAVIS ST 13 SUSPICIOUS PERSON
180421269518 4-21 11:07 7000 COLLINS RD 1066 CANCEL
180421269416 4-21 11:06 600 N LINCOLN CT 21R BURGLARY RESIDENCE
180421269392 4-21 11:06 PHOENIX AVE AND E 10TH ST 73 DRUG INVESTIGATION
180421269516 4-21 11:06 E I10 EXPWY AND CASSAT AVE 4 AUTO CRASH
180421269512 4-21 11:06 5500 MONCRIEF RD 1066 CANCEL
180421269486 4-21 10:59 9100 LEM TURNER RD 9 THEFT
180421269465 4-21 10:59 2300 W EDGEWOOD AVE 2 63 DISPUTE IMPAIRED/INTOXICATED
180421269501 4-21 10:58 11000 BEACH BLVD 3 HIT AND RUN CRASH
180421269506 4-21 10:57 9300 103RD ST 63 DISPUTE
180421269500 4-21 10:57 10500 LEM TURNER RD 63 DISPUTE
180421269505 4-21 10:55 11000 MCCORMICK RD 63 DISPUTE
180421269482 4-21 10:54 9000 11TH AVE 6388 DISPUTE WITH ASSAULT
180421269495 4-21 10:48 10100 ARROWHEAD DR 2288 DOMESTIC DISPUTE WITH/ASSAULT
180421269443 4-21 10:48 400 COMMERCE CENTER DR 3 HIT AND RUN CRASH
180421269437 4-21 10:45 3400 W LENCZYK DR 21C BURGLARY CONVEYANCE
180421269488 4-21 10:45 N I295 EXPWY AND NORMANDY BLVD 4 53 TRAFFIC CRASH PERSON INJURED
180421269472 4-21 10:44 6400 LENCZYK DR 63 DISPUTE
180421269456 4-21 10:44 9800 CREEKFRONT RD 68 CON GAME/FLIM FLAM
180421269448 4-21 10:43 6600 MORSE GLEN LN 95IDT IDENTITY THEFT TELESERVE
180421269480 4-21 10:42 6700 103RD ST 63 DISPUTE
180421269487 4-21 10:42 3600 W COPPER CIR 10R VEHICLE THEFT RECOVERY
180421269478 4-21 10:42 E I10 EXPWY AND STOCKTON ST 4 AUTO CRASH
180421269471 4-21 10:42 LEM TURNER RD AND N I95 EXPWY 4 AUTO CRASH
180421269483 4-21 10:40 E I10 EXPWY AND S LANE AVE 4 53 TRAFFIC CRASH PERSON INJURED
180421269484 4-21 10:39 N I295 EXPWY AND BAYMEADOWS RD 96 ASSIST MOTORIST
180421269462 4-21 10:37 7900 LEM TURNER RD 63 DISPUTE
180421269479 4-21 10:36 N I295 EXPWY AND BEACH BLVD 1050 TRAFFIC STOP
180421269445 4-21 10:34 2900 POST ST 63 DISPUTE
180421269452 4-21 10:32 8900 W BEAVER ST 37 UNVERIFIED 911 CALL
180421269390 4-21 10:31 2700 STARDUST CT 63 DISPUTE
180421269469 4-21 10:30 4100 DUNN AVE 4 AUTO CRASH
180421269436 4-21 10:29 1200 LABELLE ST 2288 DOMESTIC DISPUTE WITH/ASSAULT
180421269468 4-21 10:29 ATLANTIC BLVD AND MINDANAO DR 91 TRAFFIC LIGHT/RR CROSSING MALFUNCTION
180421269463 4-21 10:27 1800 SOUTHAMPTON RD 63 DISPUTE
180421269466 4-21 10:27 6300 ARLINGTON EXPWY 37 UNVERIFIED 911 CALL
180421269464 4-21 10:26 W 14TH ST AND MCMILLAN ST 54 ILLEGALLY PARKED CAR
180421269461 4-21 10:24 10900 LEM TURNER RD 88J ASSAULT JUST OCCURRED
180421269458 4-21 10:24 4400 PHILIPS HWY 4 AUTO CRASH
180421269450 4-21 10:18 5300 MONCRIEF RD 27 MENTALLY ILL PERSON
180421269383 4-21 10:18 6400 FT CAROLINE RD 63 DISPUTE
180421269447 4-21 10:18 3600 E BUCKSKIN TRL 1066 CANCEL
180421269433 4-21 10:15 9900 SUNSET DR 22 DOMESTIC
180421269444 4-21 10:15 1800 W 6TH ST 22 DOMESTIC
180421269438 4-21 10:15 100 W MATHEWS BRG 16 ROAD OBSTRUCTION
180421269442 4-21 10:12 3800 FOREST BLVD 63 DISPUTE
180421269439 4-21 10:11 3500 TOWNSEND BLVD 76 ASSIST OTHER AGENCY
180421269434 4-21 10:08 8800 LIBERTY RIDGE DR 4 AUTO CRASH
180421269435 4-21 10:07 S I295 EXPWY AND E I10 EXPWY 4 AUTO CRASH
180421269426 4-21 10:06 2500 RILEY OAKS TRL 1066 CANCEL
180421269432 4-21 10:05 3400 S COPPER CIR 76 ASSIST OTHER AGENCY
180421269431 4-21 10:05 700 E 5TH ST 76 ASSIST OTHER AGENCY
180421269428 4-21 10:03 5200 HELM AVE 95ID IDENTITY THEFT
180421269423 4-21 10:02 6300 FABIAN DR 13 SUSPICIOUS PERSON
180421269424 4-21 10:01 9300 PHILIPS 1050 TRAFFIC STOP
180421269421 4-21 10:00 ARLINGTON RD AND KING ARTHUR RD 4 53 TRAFFIC CRASH PERSON INJURED
180421269420 4-21 09:58 N LANE AVE AND COMMONWEALTH AVE 96 ASSIST MOTORIST
180421269406 4-21 09:57 600 N LINCOLN CT 76 ASSIST OTHER AGENCY
180421269375 4-21 09:56 100 S ARLINGTON RD 63 DISPUTE
180421269398 4-21 09:55 3600 S KERNAN BLVD 63 DISPUTE
180421269414 4-21 09:53 7900 MERRILL RD 76 ASSIST OTHER AGENCY
180421269413 4-21 09:52 4500 CAPE SABLE CT 1066 CANCEL
180421269411 4-21 09:51 N I295 EXPWY AND W I10 EXPWY 4 AUTO CRASH
180421269393 4-21 09:50 1700 POWHATTAN ST 22 DOMESTIC
180421269409 4-21 09:49 S I295 EXPWY AND S I95 EXPWY 4 AUTO CRASH
180421269405 4-21 09:47 300 DELMONTE ST 8 MISSING PERSON
180421269404 4-21 09:46 5500 SAN JOSE BLVD 4 AUTO CRASH
180421269400 4-21 09:46 S I95 EXPWY AND PHILIPS HWY 4 AUTO CRASH
180421269399 4-21 09:46 1200 STEELE CT 21C BURGLARY CONVEYANCE
180421269378 4-21 09:42 10700 MAJURO DR 63 DISPUTE
180421269386 4-21 09:38 1800 S LANE AVE 63 DISPUTE
180421269391 4-21 09:37 4200 ROOSEVELT BLVD 4 AUTO CRASH
180421269335 4-21 09:37 3000 W EDGEWOOD AVE 14B VANDALISM BUSINESS
180421269385 4-21 09:33 N I295 EXPWY AND PHILIPS HWY 1066 CANCEL
180421269379 4-21 09:33 7400 CUMBRIA BLVD 22 DOMESTIC
180421269382 4-21 09:32 2200 MAYPORT RD 76 ASSIST OTHER AGENCY
180421269360 4-21 09:31 8000 S CHATEAU DR 6388 DISPUTE WITH ASSAULT
180421269366 4-21 09:29 LEM TURNER RD AND TROUT RIVER BLVD 91 TRAFFIC LIGHT/RR CROSSING MALFUNCTION
180421269381 4-21 09:28 1800 ECTOR RD 76 ASSIST OTHER AGENCY
180421269364 4-21 09:25 300 AMBER RIDGE RD 9T THEFT (TELESERVE)
180421269370 4-21 09:24 W I10 EXPWY AND S LANE AVE 4 AUTO CRASH
180421269363 4-21 09:24 6700 MADRID AVE 9T THEFT (TELESERVE)
180421269355 4-21 09:24 5200 NORMANDY BLVD 68T CON GAME/FLIM FLAM TELESERVE
180421269374 4-21 09:24 3400 STANLEY ST 22 DOMESTIC
180421269361 4-21 09:19 SOUTHSIDE BLVD AND ANDERS BLVD 4 AUTO CRASH
180421269358 4-21 09:16 STOCKTON ST AND MYRA ST 1050 TRAFFIC STOP
180421269356 4-21 09:15 I295 RP AND SAN JOSE BLVD 4 AUTO CRASH
180421269340 4-21 09:12 N KEYSTONE DR AND ART MUSEUM DR 4 AUTO CRASH
180421269342 4-21 09:12 400 CENTURY 21 DR 4 AUTO CRASH
180421269353 4-21 09:12 3500 BEACH BLVD 27 MENTALLY ILL PERSON
180421269336 4-21 09:11 1700 HODGES BLVD 33 DISCHARGING OF FIREARM
180421269264 4-21 09:10 2600 KOHN RD 10 VEHICLE THEFT
180421269351 4-21 09:09 3800 W UNIVERSITY BLVD 9 THEFT
180421269348 4-21 09:07 2000 JAMMES RD 60 SUICIDE OR ATTEMPT
180421269350 4-21 09:06 2000 FAYE RD 13 SUSPICIOUS PERSON
180421269346 4-21 09:05 100 W UNION ST 70J COUNTERFEIT JUST OCCURRED
180421269341 4-21 09:02 6800 NORMANDY BLVD 5582 HOLDING ONE FOR SHOPLIFTING
180421269343 4-21 09:02 4400 SEABREEZE DR 28 DELIVER MESSAGE
180421269337 4-21 08:51 100 S BUCKMAN BRG 4 AUTO CRASH
180421269318 4-21 08:51 6700 MADRID AVE 86T LOST PROPERTY (TELESERVE)
180421269331 4-21 08:47 12700 MORNING DOVE CT 16 ROAD OBSTRUCTION
180421269327 4-21 08:43 100 W INDEPENDENT DR 37 UNVERIFIED 911 CALL
180421269326 4-21 08:41 100 METZ ST 14C VANDALISM CONVEYANCE
180421269282 4-21 08:39 6900 PICKETTVILLE RD 9 THEFT
180421269313 4-21 08:38 14200 GALVANIZED TRL 63 DISPUTE
180421269325 4-21 08:36 N I95 EXPWY AND EMERSON ST 4 AUTO CRASH
180421269307 4-21 08:35 4600 BLOUNT AVE 1066 CANCEL
180421269319 4-21 08:32 N I95 EXPWY AND J TURNER BUTLER BLVD 4 AUTO CRASH
180421269321 4-21 08:31 I10EB/I295 1050 TRAFFIC STOP
180421269308 4-21 08:26 600 HALVERSON CT 1066 CANCEL
180421269312 4-21 08:23 N I295 EXPWY AND SAN JOSE BLVD 4 AUTO CRASH
180421269285 4-21 08:23 7600 ORLANDO AVE 27 MENTALLY ILL PERSON
180421269311 4-21 08:23 S I295 EXPWY AND SAN JOSE BLVD 4 AUTO CRASH
180421269310 4-21 08:22 N I295 EXPWY AND DUVAL RD 4 53 TRAFFIC CRASH PERSON INJURED
180421269309 4-21 08:20 E 2ND ST AND N LIBERTY ST 1050 TRAFFIC STOP
180421269297 4-21 08:12 2300 S ST JOHNS BLUFF RD 63 DISPUTE
180421269302 4-21 08:11 11700 SAN JOSE BLVD 1066 CANCEL
180421269260 4-21 08:08 1100 BROWARD RD 2288 DOMESTIC DISPUTE WITH/ASSAULT
180421269300 4-21 08:06 S I95 EXPWY AND PHILIPS HWY 4 AUTO CRASH
180421269299 4-21 08:06 S I95 EXPWY AND OLD ST AUGUSTINE RD 4 AUTO CRASH
180421269298 4-21 08:03 3200 PLYMOUTH ST 76 ASSIST OTHER AGENCY
180421269295 4-21 08:01 N I95 EXPWY AND N I295 EXPWY 4 AUTO CRASH
180421269289 4-21 07:59 100 S BUCKMAN BRG 4 AUTO CRASH
180421269291 4-21 07:56 11200 OLD ST AUGUSTINE RD 76 ASSIST OTHER AGENCY
180421269288 4-21 07:54 S I95 EXPWY AND PHILIPS HWY 4 AUTO CRASH
180421269281 4-21 07:51 2000 HODGES BLVD 21C BURGLARY CONVEYANCE
180421269284 4-21 07:50 1200 ORTON ST 76 ASSIST OTHER AGENCY
180421269278 4-21 07:40 7200 LEM TURNER RD 63 DISPUTE
180421269279 4-21 07:39 PARK ST AND CASSAT AVE 49 REPORT TO HOSPITAL
180421269270 4-21 07:34 1200 MURRAY DR 14C VANDALISM CONVEYANCE
180421269275 4-21 07:34 9400 103RD ST 10R VEHICLE THEFT RECOVERY
180421269272 4-21 07:32 6300 DIANE RD 21C BURGLARY CONVEYANCE
180421269271 4-21 07:30 2000 W 16TH ST 21R BURGLARY RESIDENCE
180421269269 4-21 07:28 BEACH BLVD AND S I295 EXPWY 96 ASSIST MOTORIST
180421269268 4-21 07:27 6400 POWERS AVE 1066 CANCEL
180421269267 4-21 07:25 1400 BROWARD RD 2288 DOMESTIC DISPUTE WITH/ASSAULT
180421269244 4-21 07:19 2400 MAYPORT RD 38 TRAFFIC ASSIGNMENT
180421269265 4-21 07:16 E I10 EXPWY AND S CHAFFEE RD 4 AUTO CRASH
180421269261 4-21 07:16 DUVAL RD. AT I295 SB 4 AUTO CRASH
180421269246 4-21 07:14 5700 S BOURBON ALY 10 VEHICLE THEFT
180421269254 4-21 07:11 3900 LAURIE ST 22 DOMESTIC
180421269238 4-21 07:11 9400 103RD ST 21CT BURGLARY CONVEYANCE TELESERVE
180421269240 4-21 07:10 9700 SOUTHBROOK DR 22 DOMESTIC
180421269251 4-21 07:07 NORMANDY BLVD AND HAMMOND BLVD 4 53 TRAFFIC CRASH PERSON INJURED
180421269233 4-21 07:07 1800 W EDGEWOOD AVE 10R VEHICLE THEFT RECOVERY
180421269231 4-21 07:07 5000 CLEVELAND RD 64 NOISE COMPLAINT
180421269191 4-21 07:06 4700 HATTERAS RD 2 63 DISPUTE IMPAIRED/INTOXICATED
180421269181 4-21 07:05 1200 STEELE CT 9 THEFT
180421269232 4-21 07:04 5000 S DOSTIE DR 37 UNVERIFIED 911 CALL
180421269227 4-21 07:03 5800 NEW KINGS RD 0 13 ARMED SUSPICIOUS PERSON
180421269200 4-21 07:01 1700 S SAN PABLO RD 63 DISPUTE
180421269249 4-21 06:58 1300 W HIGH PLAINS DR 2288 DOMESTIC DISPUTE WITH/ASSAULT
180421269248 4-21 06:57 5700 ORTEGA PARK BLVD 21R BURGLARY RESIDENCE
180421269241 4-21 06:53 8000 ARLINGTON EXPWY 21C BURGLARY CONVEYANCE
180421269239 4-21 06:51 5100 SAN JOSE BLVD 1066 CANCEL
180421269234 4-21 06:45 14800 OLD ST AUGUSTINE RD 63 DISPUTE
180421269223 4-21 06:44 5100 PARK ST 10 VEHICLE THEFT
180421269235 4-21 06:41 1500 N ST JOHNS BLUFF RD 13 SUSPICIOUS PERSON
180421269228 4-21 06:40 1500 MONUMENT RD 13 SUSPICIOUS PERSON
180421269230 4-21 06:34 1500 S LANE AVE 88 ASSAULT
180421269214 4-21 06:30 8100 ALDERMAN RD 10 VEHICLE THEFT
180421269225 4-21 06:23 BAYMEADOWS RD AND W PRINCETON SQUARE BLVD 1050 TRAFFIC STOP
180421269221 4-21 06:21 ROOSEVELT BLVD AND TIMUQUANA RD 91 TRAFFIC LIGHT/RR CROSSING MALFUNCTION
180421269170 4-21 06:17 8200 AXSON ST 2 63 DISPUTE IMPAIRED/INTOXICATED
180421269220 4-21 06:16 W 22ND ST AND SILVER ST 13 SUSPICIOUS PERSON
180421269203 4-21 06:15 7500 ARLINGTON EXPWY 63 DISPUTE
180421269217 4-21 06:13 5900 BEACH BLVD 9J THEFT JUST OCCURRED
180421269208 4-21 06:10 W FORSYTH ST AND JOHNSON ST 1066 CANCEL
180421269206 4-21 06:10 1100 E 15TH ST 22 DOMESTIC
180421269213 4-21 06:07 2900 JUSTINA RD 1066 CANCEL
180421269210 4-21 06:06 5700 S BOURBON ALY 10 VEHICLE THEFT
180421269209 4-21 06:05 900 PLAYER RD 1066 CANCEL
180421269207 4-21 06:03 1800 W 3RD ST 8 27 MISSING MENTALLY ILL
180421269202 4-21 05:59 200 W UNION ST 9 THEFT
180421269205 4-21 05:58 HOMICIDE 1050 TRAFFIC STOP
180421269193 4-21 05:57 2000 W 15TH ST 37 UNVERIFIED 911 CALL
180421269201 4-21 05:56 800 COMMERCE CENTER DR 13 SUSPICIOUS PERSON
180421269192 4-21 05:53 2900 E BAYSHORE DR 8 MISSING PERSON
180421269197 4-21 05:51 W UNION ST AND N HOGAN ST 9 THEFT
180421269159 4-21 05:51 8400 BLANDING BLVD 63 DISPUTE
180421269164 4-21 05:46 1200 LABELLE ST 63 DISPUTE
180421269186 4-21 05:34 BEACH BLVD AND N I295 EXPWY 96 ASSIST MOTORIST
180421269185 4-21 05:32 11100 W. BEAVER ST. 4 53 TRAFFIC CRASH PERSON INJURED
180421269171 4-21 05:30 1900 ELLA ST 22 DOMESTIC
180421269183 4-21 05:30 NEW BERLIN RD AND STARRATT RD 1050 TRAFFIC STOP
180421269177 4-21 05:27 13800 OLD ST AUGUSTINE RD 63 DISPUTE
180421269176 4-21 05:22 6600 SOUTHPOINT PKWY 63 DISPUTE
180421269182 4-21 05:22 S I295 16 ROAD OBSTRUCTION
180421269175 4-21 05:15 5000 S DOSTIE DR 37 UNVERIFIED 911 CALL
180421269172 4-21 05:15 500 LANE AVE 63 DISPUTE
180421269169 4-21 05:13 2300 PINE ISLAND CT 7 DEAD PERSON
180421269168 4-21 05:11 I95N/BAYMEADOWS RD 96 ASSIST MOTORIST
180421269160 4-21 04:58 10400 PINEHURST DR 63 DISPUTE
180421269157 4-21 04:57 9400 BEACH BLVD 4 AUTO CRASH
180421269158 4-21 04:55 ARLINGTON EXPWY AND UNIVERSITY BLVD 1050 TRAFFIC STOP
180421269155 4-21 04:53 1700 BROADWAY AVE 33 DISCHARGING OF FIREARM
180421269146 4-21 04:52 2200 SEGOVIA AVE 10 VEHICLE THEFT
180421269154 4-21 04:52 1400 KINGS RD 1050 TRAFFIC STOP
180421269141 4-21 04:47 5000 S MARBLE EGRET DR 64 NOISE COMPLAINT
180421269150 4-21 04:44 5000 CLEVELAND RD 4 AUTO CRASH
180421269149 4-21 04:44 100 W UNION ST 63 DISPUTE
180421269145 4-21 04:42 1300 CHAFFEE RD 10J VEHICLE THEFT JUST OCCURRED
180421269143 4-21 04:41 1900 ATLANTIC BLVD 9J THEFT JUST OCCURRED
180421269131 4-21 04:37 2400 DUNN AVE 22 DOMESTIC
180421269142 4-21 04:36 ARGYLE/MERCHANTS 1050 TRAFFIC STOP
180421269078 4-21 04:33 5800 ATLANTIC BLVD 63 DISPUTE
180421269125 4-21 04:31 9800 ATLANTIC BLVD 63 DISPUTE
180421269138 4-21 04:29 COLLINS RD AND PARRAMORE RD 96 ASSIST MOTORIST
180421269137 4-21 04:25 POWERS AVE AND TOLEDO RD 1050 TRAFFIC STOP
180421269136 4-21 04:24 NEW BERLIN RD AND YELLOW BLUFF RD 1050 TRAFFIC STOP
180421269134 4-21 04:22 5700 HOLLY BELL DR 76 ASSIST OTHER AGENCY
180421269135 4-21 04:22 POWERS AVE AND TOLEDO RD 1050 TRAFFIC STOP
180421269114 4-21 04:15 2600 LOWES PL 13 SUSPICIOUS PERSON
180421269117 4-21 04:15 9100 12TH AVE 33 DISCHARGING OF FIREARM
180421269121 4-21 04:11 10500 LEM TURNER RD 63 DISPUTE
180421269090 4-21 04:10 13300 ATLANTIC BLVD 22 DOMESTIC
180421269115 4-21 04:08 INMAN PL AND SAN JOSE BLVD 96 ASSIST MOTORIST
180421269119 4-21 04:07 5400 N FERN CREEK DR 13 SUSPICIOUS PERSON
180421269118 4-21 04:04 S I95 EXPWY AND W UNIVERSITY BLVD 1050 TRAFFIC STOP
180421269116 4-21 04:00 BERGMANN RD AND W 45TH ST 1050 TRAFFIC STOP